SSA

operational
NORAD ID: 13844 Int'l Des: 1983-008 Owner: NRO/NRL Country: US
LEO

About SSA

Description loading...

Live Position

Loading 3D Globe...

Upcoming Passes

Altitude History

Altitude vs Time

uPlot chart will show altitude changes over time

Two-Line Element Set

1 13844U 83008E 26061.11335709 .00002799 00000-0 38543-3 0 9996
2 13844 63.3115 322.7237 0722892 133.0302 233.3671 13.77086688344100
Epoch: Mar 2, 2026 • Age: 36 hours

Current Status

Altitude 1512.1 km
Velocity 6.85 km/s
Sub-Earth Point -49.56°S, 50.93°W
Launch Date Feb 9, 1983
Age 43 years
Type other

Technical Details

Classification Payload
Mass 200.00 kg
Dry Mass 200.00 kg
Total Mass 200.00 kg
Length 0.90 m
Diameter 0.40 m
Span 10.00 m
Shape Box + Ant
Manufacturer MM
Bus Type NOSS SSU
Phase Status In Orbit
Owner/State NRO/NRL/US

Large Constellations

Loading constellations...